SL-8 R/B

Satellite information

Favourite Embed

Satellite Type and Status

ROCKET BODYIN ORBIT

Key statistics

Satellite SL-8 R/B at a glance.

Uptime

18552

Days in orbit

Revolutions

≈ 12.2

Per day

Orbit

LEO

Low Earth Orbit

Inclination

74.0

Latest

Satellite identification and parameters

Extended collection of information and parameters for SL-8 R/B.

Object identification

Identified? True

Debris? False

Object name: SL-8 R/B

International designator: 1975-016J

Object number (NORAD): 7686

Object ID (CCSDS): 7686

Country: COMMONWEALTH OF INDEPENDENT STATES (CIS)

Current information (Y/N): Y

RCS size: LARGE

Orbital parameters

Period: 117.924 minutes

Inclination: 74.0025 deg

SMA: 7965.785 km

Apoapsis: 1718.526 km

Periapsis: 1456.774 km

RAAN: 39.903 deg

Eccentricy: 0.01642979

Argument of periapsis: 188.7945 deg

Mean anomaly: 276.8392 deg

Mean motion: 12.21124295 rev/day

Mean motion (dot): -0.00000001 rev/day2

B* drag term: 0.00012554939 1/REarth

Two-line elements (TLE)

Creation date: Dec. 14, 2025, 3:07 a.m.

Reference frame: TEME

Reference center: EARTH

Epoch: Dec. 13, 2025, 12:13 p.m. UTC

TLE line 0: 0 SL-8 R/B

TLE line 1: 1 07686U 75016J 25347.50903263 -.00000001 00000-0 12555-3 0 9998

TLE line 2: 2 07686 74.0025 39.9030 0164298 188.7945 276.8392 12.21124295263572

Live tracking on map

Real-time ground track for satellite SL-8 R/B.

In-orbit conjunctions

A list of the most updated potential collisions computed for object SL-8 R/B.

Target Orbit TCA Probability of collision Miss distance Type
OV1-2 HEO 2025-05-26 21:46:54 0.000477162 365.0 (m) PAYLOAD

Associated space launch

Military communications satellites

SL-8 R/B was lifted into orbit during the mission ‘Kosmos-3M | Strela-1M 81-88’, on board a Kosmos-3M space rocket.

The launch took place on Feb. 28, 1975, 2:01 p.m. from 132/2.

For more information about the launch, click the button.

Launch to space Kosmos-3M | Strela-1M 81-88
Kosmos-3M | Strela-1M 81-88

Agency: N/A

Status: Launch Successful

Launch date: Feb. 28, 1975, 2:01 p.m. UTC

Rocket: Kosmos-3M

Launch pad: 132/2

Location: Plesetsk Cosmodrome, Russian Federation

...

Latest news about this satellite

There are no fresh news available about this satellite. Check back as we update our databases every day.


Newsletter sign-up

Weekly statistics, charts and insights to help you stay on top of the space industry.